Current weather by "City, St" or "zip code"  
 

Current Conditions: PORT ARANSAS

Mostly Cloudy


84.9 F

Last Updated on Jun 17 2024, 10:55 PM CDT
Humidity: 71%
Wind Speed: 18.3 mph
Barometer 29.81 in
Dewpoint: 74.5 F
Visibility: 10.00 mi
Precip: --
Heat Index: 92.8 F
Wind Chill: NA
Current conditions at:

PORT ARANSAS (KRAS)

Lat: 27.81 Lon: 97.09

active severe weather and emergency alerts image image weather storm and storm spotter reports image weather observation monitoring service image
Active
Alerts
Storm Reports Obs
Monitoring

Sign-up For Email & Text Message Weather Alert Notification Services



Advertise Here

Observation History for PORT ARANSAS


Time Wind
(mph)
Vis
(mi)
Weather Precip (in) Temperature (F) Relative
Humidity
Wind
Chill
(F)
Heat
Index
(F)
Pressure
Air Dwpt altimeter
(in)
sea level
(mb)
Rmks
10:55 PM CDT 18.3 10.00 Mostly Cloudy -- 84.9 74.5 71% NA 92.8 29.81 1009.5
10:35 PM CDT 21.9 10.00 Partly Cloudy and Windy -- 84.9 74.5 71% NA 92.8 29.81 1009.5
09:55 PM CDT 20.8 10.00 Mostly Cloudy and Windy -- 84.9 73.9 70% NA 92.5 29.81 1009.2
09:35 PM CDT 19.7 10.00 Mostly Cloudy and Windy -- 84.6 75.0 73% NA 92.8 29.81 1009.2
09:15 PM CDT 19.7 10.00 Partly Cloudy and Windy -- 84.9 75.0 72% NA 93.4 29.81 1009.2
08:55 PM CDT 21.9 10.00 Partly Cloudy and Windy -- 84.7 75.2 73% NA 93.4 29.79 1008.8
07:35 PM CDT SE 19.7 10.00 Mostly Cloudy and Windy -- 85.5 74.3 69% NA 93.6 29.79 1008.8
06:55 PM CDT 21.9 10.00 Partly Cloudy and Windy -- 87.6 75.9 68% NA 98.4 29.78 1008.5
05:55 PM CDT 16.1 10.00 Partly Cloudy -- 87.4 77.2 72% NA 99.7 29.77 1008.1
05:35 PM CDT SE 19.7 10.00 Cloudy and Windy -- 87.4 77.0 71% NA 99.3 29.78 1008.5
04:15 PM CDT 17.2 10.00 Partly Cloudy -- 90.0 77.7 67% NA 104.0 29.78 1008.5
03:55 PM CDT E 16.1 10.00 Partly Cloudy -- 90.1 77.4 66% NA 103.8 29.78 1008.5
03:15 PM CDT 15.0 10.00 Mostly Cloudy -- 89.6 77.2 67% NA 102.7 29.79 1008.8
02:55 PM CDT E 16.1 10.00 Mostly Cloudy -- 90.1 76.8 65% NA 103.1 29.79 1008.8
02:35 PM CDT 13.9 10.00 Partly Cloudy -- 90.7 77.2 65% NA 104.4 29.79 1008.8
02:15 PM CDT 10.00 Mostly Cloudy -- NULL % NA NA M
01:35 PM CDT 15.0 10.00 Partly Cloudy -- 90.0 77.4 67% NA 103.6 29.81 1009.2
01:15 PM CDT 13.9 10.00 Partly Cloudy -- 90.0 76.8 65% NA 102.7 29.81 1009.2
11:35 AM CDT 11.4 10.00 Partly Cloudy -- 90.0 77.5 67% NA 103.8 29.82 1009.8
11:15 AM CDT 10.00 Partly Cloudy -- NULL % NA NA M
10:35 AM CDT SE 10.3 10.00 Partly Cloudy -- 88.5 77.0 69% NA 100.9 29.81 1009.5
07:55 AM CDT SE 13.9 10.00 Mostly Cloudy -- 85.3 76.8 76% NA 95.7 29.79 1008.8
07:15 AM CDT SE 12.8 10.00 Mostly Cloudy -- 84.7 78.1 81% NA 96.3 29.78 1008.5
06:35 AM CDT 11.4 10.00 Partly Cloudy -- 84.6 76.6 77% NA 94.5 29.78 1008.5

Regional Weather Observation


CORPUS CHRISTI (KCRP)

Mostly Clear
84.9 F

C. CHRISTI NAS (KNGP)

Mostly Cloudy
82.9 F

ROBSTOWN/NUECES (KRBO)

Clear
82.4 F

KINGSVILLE NAS (KNQI)

Partly Cloudy
86.0 F

KENEDY (K2R9)

Clear
81.0 F

PORT LAVACA (KPKV)

Partly Cloudy
83.7 F

Advertise Here


Advertise Here